Regional Weather Roundup
Issued by NWS

Home | Current Version | Previous Version | Text Only | Print | Product List | Glossary On
Versions: 1 2 3 4 5 6 7 8 9 10 11 12 13 14 15 16 17 18 19 20 21 22 23 24 25 26 27 28 29 30 31 32 33 34 35 36 37 38 39 40 41 42 43 44 45 46 47 48 49 50
000
ASUS43 KMKX 011611
RWRWI

WISCONSIN REGIONAL WEATHER ROUNDUP
NATIONAL WEATHER SERVICE MILWAUKEE/SULLIVAN WI
1100 AM CDT TUE SEP 01 2015

NOTE: "FAIR" INDICATES FEW OR NO CLOUDS BELOW 12,000 FEET WITH NO
SIGNIFICANT WEATHER AND/OR OBSTRUCTIONS TO VISIBILITY.

WIZ001-002-006>008-014>016-023>028-011700-
NORTHWEST WISCONSIN

CITY           SKY/WX    TMP DP  RH WIND       PRES   REMARKS
SUPERIOR ARPT  CLOUDY    75  71  87 W3        29.91R
ASHLAND        LGT RAIN  75  73  93 SW8       29.91S
HAYWARD        PTSUNNY   77  69  76 SW8       29.94S
SIREN          PTSUNNY   77  69  75 CALM      29.93S
CUMBERLAND     MOSUNNY   73  68  83 S6        29.95S
RICE LAKE      MOSUNNY   78  69  72 S7        29.96S HX  80
CHETEK         MOSUNNY  N/A N/A N/A S5        29.95S
LADYSMITH      MOSUNNY   77  70  77 S6        29.98S
EAU CLAIRE     PTSUNNY   80  68  66 S7        29.94F HX  83
MENOMONIE      SUNNY     82  72  72 S8        29.94S HX  86
NEW RICHMOND   PTSUNNY   78  68  71 S9        29.94S HX  80
OSCEOLA        PTSUNNY   79  73  81 S6        29.95F HX  82
$$

WIZ003>005-009-010-017-018-011700-
NORTH CENTRAL WISCONSIN

CITY           SKY/WX    TMP DP  RH WIND       PRES   REMARKS
MANITOWISH WTR PTSUNNY   77  69  76 SW10      29.97S
ARBOR VITAE    MOSUNNY   77  70  78 SW10      29.98S
WOODRUFF       MOSUNNY   77  70  78 SW10      29.98S
RHINELANDER    MOSUNNY   77  69  76 VRB6      30.00S
EAGLE RIVER    SUNNY     78  66  66 SW8       29.98F HX  80
LAND O LAKES   SUNNY     78  67  67 SW7       29.99F HX  80
PHILLIPS       CLOUDY    73  70  91 SW7       29.98R
TOMAHAWK       PTSUNNY   75  69  82 CALM      30.00S
MEDFORD        MOSUNNY   76  72  86 SW6       29.99F
MERRILL        PTSUNNY   77  73  86 SW7       29.99F
$$

WIZ029-030-035-036-043>047-011700-
CENTRAL WISCONSIN

CITY           SKY/WX    TMP DP  RH WIND       PRES   REMARKS
WAUSAU         MOSUNNY   78  71  79 S7        29.98S HX  80
MOSINEE        NOT AVBL
MARSHFIELD     MOSUNNY   81  70  69 SW6       29.99S HX  84
STEVENS POINT  SUNNY     78  70  75 SW8       29.99F HX  81
WAUPACA        SUNNY     83  73  70 S3        29.99F HX  89
WAUTOMA        SUNNY     84  73  69 SW3       30.00S HX  90
WISC RAPIDS    SUNNY     82  70  66 CALM      30.00S HX  86
CAMP DOUGLAS   MOSUNNY   82  77  83 VRB6      29.98F HX  91
$$

WIZ011>013-019>022-031-037>040-048>050-011700-
NORTHEAST WISCONSIN

CITY           SKY/WX    TMP DP  RH WIND       PRES   REMARKS
ANTIGO         PTSUNNY   78  72  82 S5        30.01F
SHAWANO        MOSUNNY   81  72  74 SW3       29.99S HX  84
OCONTO         SUNNY     80  75  85 SW5       29.97S HX  84
STURGEON BAY   MOSUNNY   81  72  74 S7        30.01S HX  84
GREEN BAY      SUNNY     80  72  76 SW7       29.99S HAZE    HX  84
MANITOWOC      SUNNY     72  66  81 MISG      30.00F
APPLETON       MOSUNNY   79  72  78 SW7       29.99S HX  82
CLINTONVILLE   SUNNY     79  72  78 S6        29.98F HX  82
OSHKOSH        SUNNY     81  73  76 SW5       30.00S HX  86
$$

WIZ032>034-041-042-053>061-011700-
SOUTHWEST WISCONSIN

CITY           SKY/WX    TMP DP  RH WIND       PRES   REMARKS
LA CROSSE      SUNNY     81  70  69 S9        29.95F HX  84
SPARTA         MOSUNNY   82  67  60 S3        29.98S HX  85
VIROQUA          N/A     80  74  82 S7        30.00S HX  85
BOSCOBEL       SUNNY     85  72  65 SW7       29.98F HX  91
PRAIRIE DU CHI SUNNY     81  69  67 SW7       29.98S HX  84
PLATTEVILLE    SUNNY     80  75  83 S10       30.01F HX  85
$$

WIZ056-057-062-063-064-067-068-011700-
SOUTH CENTRAL WISCONSIN

CITY           SKY/WX    TMP DP  RH WIND       PRES   REMARKS
REEDSBURG      MOSUNNY   82  72  70 S8        29.99S HX  87
BARABOO/DELLS  SUNNY     83  68  58 S7        30.00S HX  86
LONE ROCK      SUNNY     83  71  67 S7        29.99F HX  87
MINERAL POINT  SUNNY     82  72  69 S7        30.02F HX  87
MADISON        MOSUNNY   83  70  64 SW8       30.01S HX  87
MIDDLETON      SUNNY     85  68  57 SW5       30.02S HX  88
WATERTOWN      SUNNY     82  74  75 SW7       30.01F HX  88
MONROE         SUNNY     81  72  74 S7        30.03F HX  84
JANESVILLE     SUNNY     82  72  69 SW6       30.02S HX  87
$$

WIZ051-052-058>065-066-070>072-011700-
SOUTHEAST WISCONSIN

CITY           SKY/WX    TMP DP  RH WIND       PRES   REMARKS
MILWAUKEE      SUNNY     83  72  69 SW8       30.02F HX  88
WAUKESHA       SUNNY     81  70  69 SW3       30.04S HX  84
MILWAUKEE/TIMM SUNNY     82  68  61 SW5       30.03S HX  85
RACINE         SUNNY     84  72  67 SW7       30.04F HX  89
BURLINGTON     SUNNY     82  71  69 S6        30.03S HX  86
KENOSHA        SUNNY     83  72  69 SW8       30.04S HX  88
FOND DU LAC    SUNNY     81  74  79 VRB7      30.01S HX  86
SHEBOYGAN      SUNNY     82  74  76 S8        30.00F HX  88
WEST BEND      SUNNY     82  70  65 CALM      30.02S HX  86
JUNEAU         SUNNY     79  73  81 S7        30.03F HX  82
$$

LSZ147-162-011700-
LAKE SUPERIOR

STATION/POSITION TIME  TEMP    WIND        PRES    WAVE
                       AIR SEA DIR/SP/G            HT/PER
                 (UTC) (F)     (DEG/KT/KT) (MB)    (FT/S)
W MID LAKE BUOY  1550   58 55  250/  4/  4 1012.3R   1
DEVILS ISLAND    1600   65     250/  9/ 10 1012.3R
PORT WING        1500   70     260/  4/  8 1012.5
SAXON HARBOR     1500   78     200/  4/  8 1012.2S
$$

LMZ867-665-643>646-011700-
LAKE MICHIGAN

STATION/POSITION TIME  TEMP    WIND        PRES    WAVE
                       AIR SEA DIR/SP/G            HT/PER
                 (UTC) (F)     (DEG/KT/KT) (MB)    (FT/S)
CHAMBERS ISLAND  1500   75     190/  6/  9 1015.2S
S GREEN BAY BUOY 1530   70 64  190/  2/  2 1016.6F
N MID LAKE BUOY  1550   67 65  190/ 12/ 14 1015.2S   2/ 4
NORTHPORT PIER   1500   67     150/  8/ 10 1015.2F
SISTER BAY       1504   80     180/  7/  9   N/A
ALGOMA LAKESHORE 1514             CALM       N/A
KEWAUNEE LAKESHO 1500   51     160/  8/  9 1015.0S
SHEBOYGAN LAKESH 1600   68     170/ 16/ 17 1016.0F
PORT WASHINGTON  1500   62     200/  4/  6 1017.3S
ATWATER BUOY     1600   60 54  170/  8/  8 1017.8F
MILWAUKEE LAKESH 1510   65     350/  1/  1   N/A
S MID LAKE BUOY  1550   71 70  180/ 12/ 14 1017.1F   1
KENOSHA   LAKESH 1600   69     180/ 12/ 13 1016.6F
$$

TC  - TEMPERATURE IN CELSIUS
VSB - VISIBILITY IN STATUTE MILES
WCI - WIND CHILL INDEX
HX  - HEAT INDEX



USA.gov is the U.S. government's official web portal to all federal, state and local government web resources and services.